Regional Weather Roundup
Issued by NWS Albany, NY

Home | Current Version | Previous Version | Graphics & Text | Print | Product List | Glossary On
Versions: 1 2 3 4 5 6 7 8 9 10 11 12 13 14 15 16 17 18 19 20 21 22 23 24 25 26 27
000
ASUS41 KALY 241810
RWRALY

NEW YORK STATE HOURLY WEATHER ROUNDUP
NATIONAL WEATHER SERVICE ALBANY NY
200 PM EDT TUE APR 24 2018

NOTE: "FAIR" INDICATES FEW OR NO CLOUDS BELOW 12,000 FEET WITH NO
SIGNIFICANT WEATHER AND/OR NO OBSTRUCTIONS TO VISIBILITY.

NYZ032-033-038>043-046>054-057>066-NYZ062>081-082-084-241900-
EAST


CITY           SKY/WX    TMP DP  RH WIND       PRES   REMARKS
ALBANY         FAIR      69  20  15 S14G23    30.25F
GLENS FALLS    FAIR      68  27  21 S15G22    30.23F
POUGHKEEPSIE   FAIR      64  31  28 SW12G24   30.29F
NEWBURGH       MOSUNNY   64  39  39 SE14      30.30F
MONTGOMERY     FAIR      66  34  30 S16       30.27F
WHITE PLAINS   FAIR      62  38  40 S10G25    30.33F
ISLIP          PTSUNNY   62  43  49 S15G24    30.36F
NEW YORK CITY  PTSUNNY   65  36  34 S17G24    30.33F
CENTRAL PARK   FAIR      65  35  33 S10G21    30.35F
$$

NYZ005>009-017-018-044>046-055-056-241900-
CENTRAL


CITY           SKY/WX    TMP DP  RH WIND       PRES   REMARKS
FULTON         FAIR      70  26  19 SW15G21   30.17F
SYRACUSE       FAIR      70  25  18 S13G21    30.16F
ROME           FAIR      69  21  16 S10G16    30.19F
ELMIRA         FAIR      65  37  35 S9G20     30.19F
BINGHAMTON     FAIR      63  28  26 SW8G23    30.20F
MONTICELLO     FAIR      63  30  28 S16G24    30.28F
$$

NYZ026>034-041>043-087-241900-
NORTH


CITY           SKY/WX    TMP DP  RH WIND       PRES   REMARKS
WATERTOWN      FAIR      66  28  24 W14       30.17F
FORT DRUM      NOT AVBL
OGDENSBURG     FAIR      70  39  31 SW8G16    30.16F
MASSENA        FAIR      71  42  35 W9        30.17F
SARANAC LAKE   FAIR      64  20  18 SW8       30.18F
PLATTSBURGH    FAIR      66  32  28 SE16      30.17F
$$

NYZ001>004-010>016-019>021-085-241900-
WEST


CITY           SKY/WX    TMP DP  RH WIND       PRES   REMARKS
NIAGARA FALLS  CLOUDY    68  37  32 S9        30.13F
BUFFALO        CLOUDY    65  38  36 S15       30.14F
DUNKIRK        LGT RAIN  57  45  64 S10G25    30.16R
JAMESTOWN      LGT RAIN  51  44  77 SE14      30.16S
WELLSVILLE     PTSUNNY   58  40  51 S10       30.19F
ROCHESTER      CLOUDY    65  34  31 VRB3      30.16F
PENN YAN       FAIR      67  35  30 SW13      30.17F
$$

             KEY
       WCI = WIND CHILL INDEX
       VSB = VISIBILITY
       HX  = HEAT INDEX
$$




USA.gov is the U.S. government's official web portal to all federal, state and local government web resources and services.